Auburn, AL

8:51 AM CDT on September 27, 2016 (GMT -0500)
Auburn-opelika-pitts

Weather History for KAUO - March, 2014

Change the Weather History Date:

Thursday, March 6, 2014

  Actual Average Record
Temperature  
Mean Temperature 41 °F -  
Max Temperature 45 °F - 84 °F (1974)
Min Temperature 36 °F - 17 °F (1960)
Degree Days  
Heating Degree Days 24    
Month to date heating degree days 104  
Since 1 July heating degree days 2324  
Cooling Degree Days 0    
Month to date cooling degree days 0  
Year to date cooling degree days 0  
Moisture  
Dew Point 34 °F    
Average Humidity 82    
Maximum Humidity 87    
Minimum Humidity 65    
Precipitation  
Precipitation 0.04 in - 4.80 in (1983)
Month to date precipitation 0.21  
Year to date precipitation 6.60  
Sea Level Pressure  
Sea Level Pressure 30.01 in    
Wind  
Wind Speed 11 mph (ENE)    
Max Wind Speed 17 mph    
Max Gust Speed 24 mph    
Visibility 9 miles    
Events      
T = Trace of Precipitation, MM = Missing Value Source: NWS Daily Summary

Daily Weather History Graph

Daily Weather History Graph

Search for Another Location

Airport or City:

Trip Planner

Search our weather history database for the weather conditions in past years. The results will help you decide how hot, cold, wet, or windy it might be!

Date:

Astronomy

Mar. 06, 2014 Rise Set
Actual Time 6:03 AM CST 5:43 PM CST
Civil Twilight 5:38 AM CST 6:07 PM CST
Nautical Twilight 5:10 AM CST 6:36 PM CST
Astronomical Twilight 4:41 AM CST 7:04 PM CST
Moon 9:29 AM CST (3/6) 11:28 PM CST (3/6)
Length of Visible Light 12h 28m
Length of Day
11h 39m
Waxing Crescent, 32% of the Moon is Illuminated
Mar 6
Waxing Crescent
Mar 8
First Quarter
Mar 16
Full
Mar 23
Last Quarter
Mar 30
New

Hourly Weather History & Observations

Time (CST) Temp. Windchill Dew Point Humidity Pressure Visibility Wind Dir Wind Speed Gust Speed Precip Events Conditions
12:15 AM 44.6 °F 40.7 °F 39.2 °F 81% 30.07 in 10.0 mi ENE 6.9 mph - N/A   Clear
12:35 AM 44.6 °F 40.2 °F 39.2 °F 81% 30.07 in 10.0 mi ENE 8.1 mph - N/A   Clear
12:55 AM 44.6 °F 41.4 °F 39.2 °F 81% 30.07 in 10.0 mi East 5.8 mph - N/A   Clear
1:15 AM 44.6 °F 40.2 °F 39.2 °F 81% 30.06 in 10.0 mi ENE 8.1 mph - N/A   Clear
1:35 AM 44.6 °F 40.2 °F 39.2 °F 81% 30.07 in 10.0 mi East 8.1 mph - N/A   Clear
1:55 AM 44.6 °F 41.4 °F 39.2 °F 81% 30.07 in 10.0 mi East 5.8 mph - N/A   Clear
2:15 AM 42.8 °F 37.0 °F 39.2 °F 87% 30.05 in 10.0 mi ENE 10.4 mph - N/A   Clear
2:35 AM 42.8 °F 38.6 °F 39.2 °F 87% 30.05 in 10.0 mi ENE 6.9 mph - N/A   Clear
2:55 AM 42.8 °F 37.5 °F 39.2 °F 87% 30.04 in 10.0 mi ENE 9.2 mph - N/A   Clear
3:15 AM 42.8 °F 37.0 °F 37.4 °F 81% 30.05 in 10.0 mi ENE 10.4 mph - N/A   Clear
3:35 AM 42.8 °F 36.6 °F 37.4 °F 81% 30.04 in 10.0 mi ENE 11.5 mph - N/A   Clear
3:55 AM 42.8 °F 37.0 °F 37.4 °F 81% 30.03 in 10.0 mi ENE 10.4 mph - N/A   Scattered Clouds
4:15 AM 42.8 °F 36.2 °F 37.4 °F 81% 30.02 in 10.0 mi ENE 12.7 mph - N/A   Mostly Cloudy
4:35 AM 42.8 °F 37.5 °F 37.4 °F 81% 30.03 in 10.0 mi ENE 9.2 mph - N/A   Overcast
4:55 AM 42.8 °F 36.6 °F 37.4 °F 81% 30.03 in 10.0 mi ENE 11.5 mph - N/A   Overcast
5:15 AM 42.8 °F 37.0 °F 37.4 °F 81% 30.04 in 10.0 mi ENE 10.4 mph - N/A   Overcast
5:35 AM 42.8 °F 36.6 °F 37.4 °F 81% 30.04 in 10.0 mi ENE 11.5 mph - N/A   Overcast
5:55 AM 42.8 °F 36.6 °F 37.4 °F 81% 30.04 in 10.0 mi ENE 11.5 mph 17.3 mph N/A   Overcast
6:15 AM 42.8 °F 35.4 °F 37.4 °F 81% 30.03 in 10.0 mi ENE 15.0 mph 23.0 mph N/A   Overcast
6:35 AM 42.8 °F 35.1 °F 37.4 °F 81% 30.04 in 10.0 mi ENE 16.1 mph - N/A   Overcast
6:55 AM 42.8 °F 37.5 °F 37.4 °F 81% 30.06 in 9.0 mi ENE 9.2 mph - N/A   Overcast
7:15 AM 42.8 °F 35.1 °F 37.4 °F 81% 30.06 in 10.0 mi ENE 16.1 mph 20.7 mph N/A   Overcast
7:35 AM 42.8 °F 35.4 °F 37.4 °F 81% 30.06 in 5.0 mi ENE 15.0 mph 24.2 mph N/A   Overcast
7:55 AM 42.8 °F 35.4 °F 37.4 °F 81% 30.05 in 8.0 mi ENE 15.0 mph - N/A   Overcast
8:15 AM 42.8 °F 35.4 °F 37.4 °F 81% 30.04 in 4.0 mi East 15.0 mph 25.3 mph N/A   Overcast
8:35 AM 41.0 °F 33.5 °F 37.4 °F 87% 30.03 in 5.0 mi NE 13.8 mph 24.2 mph N/A   Overcast
8:55 AM 39.2 °F 30.8 °F 35.6 °F 87% 30.03 in 8.0 mi ENE 15.0 mph 24.2 mph N/A   Overcast
9:15 AM 39.2 °F 29.6 °F 33.8 °F 81% 30.03 in 10.0 mi ENE 19.6 mph 25.3 mph N/A   Overcast
9:35 AM 39.2 °F 32.0 °F 33.8 °F 81% 30.04 in 6.0 mi NE 11.5 mph 18.4 mph N/A   Overcast
9:55 AM 39.2 °F 32.0 °F 33.8 °F 81% 30.04 in 10.0 mi ENE 11.5 mph 19.6 mph N/A   Overcast
10:15 AM 39.2 °F 30.8 °F 32.0 °F 75% 30.04 in 10.0 mi NE 15.0 mph 21.9 mph N/A   Overcast
10:35 AM 39.2 °F 31.2 °F 33.8 °F 81% 30.03 in 10.0 mi ENE 13.8 mph 19.6 mph N/A   Overcast
10:55 AM 41.0 °F 33.9 °F 33.8 °F 76% 30.02 in 10.0 mi ENE 12.7 mph 20.7 mph N/A   Overcast
11:15 AM 41.0 °F 32.5 °F 32.0 °F 70% 30.02 in 10.0 mi ENE 17.3 mph 21.9 mph N/A   Overcast
11:35 AM 39.2 °F 31.2 °F 30.2 °F 70% 30.02 in 10.0 mi NE 13.8 mph 21.9 mph N/A   Overcast
11:55 AM 41.0 °F 32.5 °F 30.2 °F 65% 30.01 in 10.0 mi East 17.3 mph 21.9 mph N/A   Overcast
12:15 PM 41.0 °F 32.5 °F 30.2 °F 65% 30.01 in 10.0 mi ENE 17.3 mph 23.0 mph N/A   Overcast
12:35 PM 39.2 °F 30.8 °F 30.2 °F 70% 30.00 in 10.0 mi ENE 15.0 mph 19.6 mph N/A   Overcast
12:55 PM 39.2 °F 31.2 °F 30.2 °F 70% 30.00 in 10.0 mi ENE 13.8 mph 18.4 mph N/A   Overcast
1:15 PM 39.2 °F 30.8 °F 33.8 °F 81% 29.98 in 10.0 mi ENE 15.0 mph 23.0 mph N/A   Overcast
1:35 PM 39.2 °F 30.2 °F 33.8 °F 81% 29.98 in 10.0 mi ENE 17.3 mph - N/A   Overcast
1:55 PM 37.4 °F 29.3 °F 33.8 °F 87% 29.98 in 8.0 mi NE 12.7 mph 16.1 mph N/A   Overcast
2:15 PM 37.4 °F 30.8 °F 33.8 °F 87% 29.99 in 8.0 mi NNE 9.2 mph - N/A   Overcast
2:35 PM 37.4 °F 30.3 °F 33.8 °F 87% 29.99 in 3.0 mi NNE 10.4 mph - 0.01 in   Overcast
2:55 PM 37.4 °F 28.9 °F 33.8 °F 87% 29.98 in 10.0 mi NE 13.8 mph 18.4 mph 0.01 in   Overcast
3:15 PM 37.4 °F 28.9 °F 33.8 °F 87% 29.97 in 10.0 mi NE 13.8 mph 19.6 mph 0.01 in   Overcast
3:35 PM 37.4 °F 29.8 °F 33.8 °F 87% 29.97 in 10.0 mi NE 11.5 mph 23.0 mph 0.01 in   Overcast
3:55 PM 37.4 °F 30.3 °F 32.0 °F 81% 29.97 in 10.0 mi NE 10.4 mph 16.1 mph 0.01 in   Overcast
4:15 PM 37.4 °F 30.8 °F 32.0 °F 81% 29.97 in 10.0 mi NE 9.2 mph - N/A   Overcast
4:35 PM 37.4 °F 32.1 °F 33.8 °F 87% 29.96 in 7.0 mi ENE 6.9 mph - 0.01 in   Overcast
4:55 PM 37.4 °F 29.3 °F 33.8 °F 87% 29.96 in 5.0 mi NE 12.7 mph - 0.01 in   Overcast
5:15 PM 37.4 °F 30.8 °F 32.0 °F 81% 29.96 in 10.0 mi ENE 9.2 mph - N/A   Overcast
5:35 PM 37.4 °F 30.3 °F 33.8 °F 87% 29.96 in 10.0 mi ENE 10.4 mph 16.1 mph N/A   Overcast
5:55 PM 35.6 °F 27.1 °F 32.0 °F 87% 29.96 in 10.0 mi NE 12.7 mph 19.6 mph N/A   Overcast
6:15 PM 35.6 °F 28.0 °F 32.0 °F 87% 29.96 in 10.0 mi ENE 10.4 mph 17.3 mph N/A   Overcast
6:35 PM 35.6 °F 27.1 °F 32.0 °F 87% 29.96 in 10.0 mi ENE 12.7 mph 17.3 mph N/A   Overcast
6:55 PM 35.6 °F 27.1 °F 30.2 °F 81% 29.97 in 10.0 mi ENE 12.7 mph 18.4 mph N/A   Overcast
7:15 PM 35.6 °F 25.9 °F 30.2 °F 81% 29.96 in 10.0 mi NE 16.1 mph - N/A   Overcast
7:35 PM 35.6 °F 28.0 °F 30.2 °F 81% 29.97 in 10.0 mi NE 10.4 mph 17.3 mph N/A   Overcast
7:55 PM 35.6 °F 28.6 °F 30.2 °F 81% 29.97 in 10.0 mi NE 9.2 mph - N/A   Overcast
8:15 PM 35.6 °F 28.6 °F 30.2 °F 81% 29.97 in 8.0 mi NE 9.2 mph - N/A   Overcast
8:35 PM 35.6 °F 27.1 °F 30.2 °F 81% 29.98 in 4.0 mi NE 12.7 mph - N/A   Overcast
8:55 PM 35.6 °F 28.6 °F 30.2 °F 81% 29.98 in 5.0 mi NE 9.2 mph - 0.01 in   Overcast
9:15 PM 35.6 °F 29.9 °F 30.2 °F 81% 29.98 in 9.0 mi NE 6.9 mph - N/A   Overcast
9:35 PM 35.6 °F 29.2 °F 30.2 °F 81% 29.98 in 8.0 mi NE 8.1 mph - N/A   Overcast
9:55 PM 35.6 °F 29.2 °F 32.0 °F 87% 29.98 in 10.0 mi NE 8.1 mph - N/A   Overcast
10:15 PM 35.6 °F 28.0 °F 32.0 °F 87% 29.97 in 8.0 mi NE 10.4 mph - N/A   Overcast
10:35 PM 35.6 °F 29.2 °F 32.0 °F 87% 29.96 in 10.0 mi NE 8.1 mph 17.3 mph N/A   Overcast
10:55 PM 35.6 °F 26.6 °F 32.0 °F 87% 29.95 in 10.0 mi NE 13.8 mph - N/A   Overcast
11:15 PM 35.6 °F 29.2 °F 30.2 °F 81% 29.96 in 10.0 mi NNE 8.1 mph - N/A   Overcast
11:35 PM 35.6 °F 28.0 °F 32.0 °F 87% 29.95 in 10.0 mi NE 10.4 mph - N/A   Overcast
11:55 PM 35.6 °F 29.2 °F 32.0 °F 87% 29.95 in 10.0 mi NNE 8.1 mph - N/A   Overcast